﻿測定場所 (Monitoring sites),日付 (Measurement date),時間 (Measurement time),線量率 最大値 (max) μGy/h,線量率 最小値 (min) μGy/h,線量率 平均値 (average) μGy/h,
足立 (Adachi),2012-11-18,23:01～24:00,0.0608,0.0536,0.0568,
足立 (Adachi),2012-11-18,22:01～23:00,0.0609,0.0535,0.0567,
足立 (Adachi),2012-11-18,21:01～22:00,0.0593,0.0518,0.0562,
足立 (Adachi),2012-11-18,20:01～21:00,0.0608,0.0519,0.0570,
足立 (Adachi),2012-11-18,19:01～20:00,0.0605,0.0543,0.0572,
足立 (Adachi),2012-11-18,18:01～19:00,0.0607,0.0536,0.0572,
足立 (Adachi),2012-11-18,17:01～18:00,0.0612,0.0548,0.0571,
足立 (Adachi),2012-11-18,16:01～17:00,0.0611,0.0545,0.0574,
足立 (Adachi),2012-11-18,15:01～16:00,0.0604,0.0536,0.0571,
足立 (Adachi),2012-11-18,14:01～15:00,0.0621,0.0542,0.0574,
足立 (Adachi),2012-11-18,13:01～14:00,0.0611,0.0536,0.0575,
足立 (Adachi),2012-11-18,12:01～13:00,0.0612,0.0544,0.0572,
足立 (Adachi),2012-11-18,11:01～12:00,0.0608,0.0527,0.0568,
足立 (Adachi),2012-11-18,10:01～11:00,0.0600,0.0539,0.0572,
足立 (Adachi),2012-11-18,09:01～10:00,0.0600,0.0533,0.0569,
足立 (Adachi),2012-11-18,08:01～09:00,0.0613,0.0527,0.0566,
足立 (Adachi),2012-11-18,07:01～08:00,0.0591,0.0532,0.0563,
足立 (Adachi),2012-11-18,06:01～07:00,0.0589,0.0526,0.0555,
足立 (Adachi),2012-11-18,05:01～06:00,0.0583,0.0531,0.0557,
足立 (Adachi),2012-11-18,04:01～05:00,0.0594,0.0517,0.0559,
足立 (Adachi),2012-11-18,03:01～04:00,0.0594,0.0534,0.0565,
足立 (Adachi),2012-11-18,02:01～03:00,0.0582,0.0527,0.0561,
足立 (Adachi),2012-11-18,01:01～02:00,0.0586,0.0527,0.0558,
足立 (Adachi),2012-11-18,00:01～01:00,0.0591,0.0528,0.0566,
足立 (Adachi),2012-11-17,23:01～24:00,0.0589,0.0534,0.0568,
足立 (Adachi),2012-11-17,22:01～23:00,0.0648,0.0553,0.0600,
足立 (Adachi),2012-11-17,21:01～22:00,0.0788,0.0610,0.0700,
足立 (Adachi),2012-11-17,20:01～21:00,0.0829,0.0717,0.0785,
足立 (Adachi),2012-11-17,19:01～20:00,0.0887,0.0729,0.0804,
足立 (Adachi),2012-11-17,18:01～19:00,0.0907,0.0759,0.0827,
足立 (Adachi),2012-11-17,17:01～18:00,0.0801,0.0628,0.0721,
足立 (Adachi),2012-11-17,16:01～17:00,0.0704,0.0618,0.0661,
足立 (Adachi),2012-11-17,15:01～16:00,0.0658,0.0594,0.0629,
足立 (Adachi),2012-11-17,14:01～15:00,0.0645,0.0572,0.0615,
足立 (Adachi),2012-11-17,13:01～14:00,0.0639,0.0566,0.0603,
足立 (Adachi),2012-11-17,12:01～13:00,0.0649,0.0569,0.0609,
足立 (Adachi),2012-11-17,11:01～12:00,0.0632,0.0549,0.0591,
足立 (Adachi),2012-11-17,10:01～11:00,0.0661,0.0546,0.0598,
足立 (Adachi),2012-11-17,09:01～10:00,0.0620,0.0546,0.0581,
足立 (Adachi),2012-11-17,08:01～09:00,0.0606,0.0545,0.0579,
足立 (Adachi),2012-11-17,07:01～08:00,0.0610,0.0544,0.0580,
足立 (Adachi),2012-11-17,06:01～07:00,0.0615,0.0544,0.0581,
足立 (Adachi),2012-11-17,05:01～06:00,0.0641,0.0534,0.0581,
足立 (Adachi),2012-11-17,04:01～05:00,0.0625,0.0547,0.0579,
足立 (Adachi),2012-11-17,03:01～04:00,0.0608,0.0550,0.0576,
足立 (Adachi),2012-11-17,02:01～03:00,0.0622,0.0550,0.0580,
足立 (Adachi),2012-11-17,01:01～02:00,0.0610,0.0535,0.0572,
足立 (Adachi),2012-11-17,00:01～01:00,0.0611,0.0550,0.0572,
足立 (Adachi),2012-11-16,23:01～24:00,0.0602,0.0540,0.0573,
足立 (Adachi),2012-11-16,22:01～23:00,0.0621,0.0512,0.0566,
足立 (Adachi),2012-11-16,21:01～22:00,0.0602,0.0537,0.0571,
足立 (Adachi),2012-11-16,20:01～21:00,0.0620,0.0527,0.0569,
足立 (Adachi),2012-11-16,19:01～20:00,0.0615,0.0542,0.0571,
足立 (Adachi),2012-11-16,18:01～19:00,0.0596,0.0535,0.0563,
足立 (Adachi),2012-11-16,17:01～18:00,0.0597,0.0530,0.0567,
足立 (Adachi),2012-11-16,16:01～17:00,0.0598,0.0531,0.0567,
足立 (Adachi),2012-11-16,15:01～16:00,0.0608,0.0530,0.0565,
足立 (Adachi),2012-11-16,14:01～15:00,0.0591,0.0531,0.0563,
足立 (Adachi),2012-11-16,13:01～14:00,0.0592,0.0521,0.0556,
足立 (Adachi),2012-11-16,12:01～13:00,0.0585,0.0528,0.0553,
足立 (Adachi),2012-11-16,11:01～12:00,0.0620,0.0535,0.0571,
足立 (Adachi),2012-11-16,10:01～11:00,0.0596,0.0534,0.0567,
足立 (Adachi),2012-11-16,09:01～10:00,0.0612,0.0539,0.0570,
足立 (Adachi),2012-11-16,08:01～09:00,0.0605,0.0536,0.0568,
足立 (Adachi),2012-11-16,07:01～08:00,0.0594,0.0526,0.0562,
足立 (Adachi),2012-11-16,06:01～07:00,0.0602,0.0535,0.0564,
足立 (Adachi),2012-11-16,05:01～06:00,0.0611,0.0542,0.0572,
足立 (Adachi),2012-11-16,04:01～05:00,0.0602,0.0538,0.0572,
足立 (Adachi),2012-11-16,03:01～04:00,0.0607,0.0534,0.0571,
足立 (Adachi),2012-11-16,02:01～03:00,0.0622,0.0547,0.0578,
足立 (Adachi),2012-11-16,01:01～02:00,0.0610,0.0534,0.0573,
足立 (Adachi),2012-11-16,00:01～01:00,0.0612,0.0534,0.0576,
足立 (Adachi),2012-11-15,23:01～24:00,0.0616,0.0550,0.0580,
足立 (Adachi),2012-11-15,22:01～23:00,0.0618,0.0546,0.0581,
足立 (Adachi),2012-11-15,21:01～22:00,0.0618,0.0536,0.0579,
足立 (Adachi),2012-11-15,20:01～21:00,0.0609,0.0550,0.0581,
足立 (Adachi),2012-11-15,19:01～20:00,0.0610,0.0539,0.0578,
足立 (Adachi),2012-11-15,18:01～19:00,0.0612,0.0546,0.0579,
足立 (Adachi),2012-11-15,17:01～18:00,0.0622,0.0545,0.0574,
足立 (Adachi),2012-11-15,16:01～17:00,0.0598,0.0547,0.0576,
足立 (Adachi),2012-11-15,15:01～16:00,0.0616,0.0552,0.0578,
足立 (Adachi),2012-11-15,14:01～15:00,0.0611,0.0546,0.0581,
足立 (Adachi),2012-11-15,13:01～14:00,0.0612,0.0551,0.0583,
足立 (Adachi),2012-11-15,12:01～13:00,0.0628,0.0560,0.0585,
足立 (Adachi),2012-11-15,11:01～12:00,0.0616,0.0536,0.0582,
足立 (Adachi),2012-11-15,10:01～11:00,0.0618,0.0560,0.0586,
足立 (Adachi),2012-11-15,09:01～10:00,0.0618,0.0540,0.0576,
足立 (Adachi),2012-11-15,08:01～09:00,0.0609,0.0536,0.0577,
足立 (Adachi),2012-11-15,07:01～08:00,0.0613,0.0531,0.0571,
足立 (Adachi),2012-11-15,06:01～07:00,0.0606,0.0528,0.0564,
足立 (Adachi),2012-11-15,05:01～06:00,0.0606,0.0554,0.0578,
足立 (Adachi),2012-11-15,04:01～05:00,0.0607,0.0540,0.0578,
足立 (Adachi),2012-11-15,03:01～04:00,0.0624,0.0540,0.0582,
足立 (Adachi),2012-11-15,02:01～03:00,0.0613,0.0553,0.0582,
足立 (Adachi),2012-11-15,01:01～02:00,0.0615,0.0544,0.0573,
足立 (Adachi),2012-11-15,00:01～01:00,0.0619,0.0533,0.0570,
足立 (Adachi),2012-11-14,23:01～24:00,0.0612,0.0536,0.0578,
足立 (Adachi),2012-11-14,22:01～23:00,0.0615,0.0544,0.0575,
足立 (Adachi),2012-11-14,21:01～22:00,0.0618,0.0532,0.0576,
足立 (Adachi),2012-11-14,20:01～21:00,0.0613,0.0546,0.0574,
足立 (Adachi),2012-11-14,19:01～20:00,0.0610,0.0544,0.0574,
足立 (Adachi),2012-11-14,18:01～19:00,0.0612,0.0544,0.0575,
足立 (Adachi),2012-11-14,17:01～18:00,0.0613,0.0535,0.0566,
足立 (Adachi),2012-11-14,16:01～17:00,0.0604,0.0521,0.0568,
足立 (Adachi),2012-11-14,15:01～16:00,0.0618,0.0536,0.0571,
足立 (Adachi),2012-11-14,14:01～15:00,0.0615,0.0543,0.0575,
足立 (Adachi),2012-11-14,13:01～14:00,0.0628,0.0537,0.0565,
足立 (Adachi),2012-11-14,12:01～13:00,0.0596,0.0540,0.0568,
足立 (Adachi),2012-11-14,11:01～12:00,0.0629,0.0530,0.0570,
足立 (Adachi),2012-11-14,10:01～11:00,0.0609,0.0544,0.0570,
足立 (Adachi),2012-11-14,09:01～10:00,0.0601,0.0533,0.0566,
足立 (Adachi),2012-11-14,08:01～09:00,0.0584,0.0525,0.0559,
足立 (Adachi),2012-11-14,07:01～08:00,0.0594,0.0512,0.0558,
足立 (Adachi),2012-11-14,06:01～07:00,0.0581,0.0505,0.0550,
足立 (Adachi),2012-11-14,05:01～06:00,0.0595,0.0537,0.0566,
足立 (Adachi),2012-11-14,04:01～05:00,0.0607,0.0522,0.0563,
足立 (Adachi),2012-11-14,03:01～04:00,0.0603,0.0526,0.0562,
足立 (Adachi),2012-11-14,02:01～03:00,0.0600,0.0525,0.0567,
足立 (Adachi),2012-11-14,01:01～02:00,0.0601,0.0546,0.0569,
足立 (Adachi),2012-11-14,00:01～01:00,0.0593,0.0539,0.0570,
足立 (Adachi),2012-11-13,23:01～24:00,0.0610,0.0541,0.0574,
足立 (Adachi),2012-11-13,22:01～23:00,0.0608,0.0536,0.0569,
足立 (Adachi),2012-11-13,21:01～22:00,0.0615,0.0533,0.0569,
足立 (Adachi),2012-11-13,20:01～21:00,0.0616,0.0535,0.0568,
足立 (Adachi),2012-11-13,19:01～20:00,0.0590,0.0522,0.0562,
足立 (Adachi),2012-11-13,18:01～19:00,0.0592,0.0530,0.0561,
足立 (Adachi),2012-11-13,17:01～18:00,0.0594,0.0535,0.0566,
足立 (Adachi),2012-11-13,16:01～17:00,0.0600,0.0532,0.0566,
足立 (Adachi),2012-11-13,15:01～16:00,0.0594,0.0536,0.0567,
足立 (Adachi),2012-11-13,14:01～15:00,0.0614,0.0525,0.0564,
足立 (Adachi),2012-11-13,13:01～14:00,0.0603,0.0545,0.0573,
足立 (Adachi),2012-11-13,12:01～13:00,0.0607,0.0535,0.0572,
足立 (Adachi),2012-11-13,11:01～12:00,0.0596,0.0537,0.0569,
足立 (Adachi),2012-11-13,10:01～11:00,0.0607,0.0549,0.0575,
足立 (Adachi),2012-11-13,09:01～10:00,0.0609,0.0522,0.0565,
足立 (Adachi),2012-11-13,08:01～09:00,0.0622,0.0538,0.0569,
足立 (Adachi),2012-11-13,07:01～08:00,0.0605,0.0526,0.0566,
足立 (Adachi),2012-11-13,06:01～07:00,0.0589,0.0523,0.0557,
足立 (Adachi),2012-11-13,05:01～06:00,0.0591,0.0506,0.0560,
足立 (Adachi),2012-11-13,04:01～05:00,0.0589,0.0537,0.0561,
足立 (Adachi),2012-11-13,03:01～04:00,0.0590,0.0516,0.0563,
足立 (Adachi),2012-11-13,02:01～03:00,0.0598,0.0522,0.0562,
足立 (Adachi),2012-11-13,01:01～02:00,0.0603,0.0533,0.0565,
足立 (Adachi),2012-11-13,00:01～01:00,0.0601,0.0514,0.0569,
足立 (Adachi),2012-11-12,23:01～24:00,0.0592,0.0528,0.0565,
足立 (Adachi),2012-11-12,22:01～23:00,0.0605,0.0538,0.0565,
足立 (Adachi),2012-11-12,21:01～22:00,0.0600,0.0521,0.0563,
足立 (Adachi),2012-11-12,20:01～21:00,0.0587,0.0526,0.0556,
足立 (Adachi),2012-11-12,19:01～20:00,0.0596,0.0528,0.0555,
足立 (Adachi),2012-11-12,18:01～19:00,0.0587,0.0520,0.0552,
足立 (Adachi),2012-11-12,17:01～18:00,0.0589,0.0511,0.0549,
足立 (Adachi),2012-11-12,16:01～17:00,0.0580,0.0518,0.0547,
足立 (Adachi),2012-11-12,15:01～16:00,0.0586,0.0506,0.0552,
足立 (Adachi),2012-11-12,14:01～15:00,0.0589,0.0519,0.0550,
足立 (Adachi),2012-11-12,13:01～14:00,0.0590,0.0514,0.0552,
足立 (Adachi),2012-11-12,12:01～13:00,0.0597,0.0529,0.0556,
足立 (Adachi),2012-11-12,11:01～12:00,0.0612,0.0535,0.0566,
足立 (Adachi),2012-11-12,10:01～11:00,0.0626,0.0532,0.0575,
足立 (Adachi),2012-11-12,09:01～10:00,0.0593,0.0525,0.0557,
足立 (Adachi),2012-11-12,08:01～09:00,0.0592,0.0523,0.0556,
足立 (Adachi),2012-11-12,07:01～08:00,0.0592,0.0518,0.0562,
足立 (Adachi),2012-11-12,06:01～07:00,0.0597,0.0530,0.0558,
足立 (Adachi),2012-11-12,05:01～06:00,0.0596,0.0530,0.0559,
足立 (Adachi),2012-11-12,04:01～05:00,0.0606,0.0529,0.0562,
足立 (Adachi),2012-11-12,03:01～04:00,0.0601,0.0534,0.0564,
足立 (Adachi),2012-11-12,02:01～03:00,0.0643,0.0541,0.0575,
足立 (Adachi),2012-11-12,01:01～02:00,0.0686,0.0577,0.0620,
足立 (Adachi),2012-11-12,00:01～01:00,0.0685,0.0620,0.0647,
